Find Starlink 30763

NORAD ID: 58163 Int'l Des: 2023-166 Owner: SPXS Country: US Constellation: starlink operational
LEOCIRCULAR

Live-Position

3D-Globus wird geladen...

Über Starlink 30763

Beschreibung wird geladen...

Nächste Überflüge

Passes for default location (London). Set your location on the main map for personalized predictions.

Höhenverlauf

Loading altitude history...

Zweizeiliger Elementsatz

1 58163U 23166P 26124.88983212 -.00000138 00000-0 74676-5 0 9995
2 58163 53.1604 305.9946 0001163 94.7007 265.4127 15.30190983141954
Epoch: 4. Mai 2026 • Age: 17 hours

Aktueller Status

Höhe 477.9 km
Geschwindigkeit 7.63 km/s
Subsatellitenpunkt -8.63°S, 145.59°W
Startdatum 29. Okt. 2023
Alter 2.5 years
Typ internet

Technische Details

Klassifizierung Payload
Masse 730.00 kg
Trockenmasse 700.00 kg
Gesamtmasse 730.00 kg
Länge 0.30 m
Durchmesser 4.10 m
Spannweite 29.00 m
Form Box + pan
Hersteller SPXS
Bus-Typ Starlink V2M
Phasenstatus In Orbit
Besitzer/Staat SPXS/US

Most Searched